O3B FM10 (40348 NORAD) Tracking and Keplerian Element Data

This shows tracking and keplerian element data for the satellite.

Feedback or suggestion? Click here.




ElementValue
Catalog40348
NameO3B FM10
Epoch Orbit7125
Epoch Day315.67491886
Epoch Year2018
RAAN12.0699
Inclination0.04
Eccentricity0.0002563
Argument of Perigee217.5694
Mean Anonmoly130.3438
Mean Motion5.00114318
Decay Rate-2.8E-07
L11 40348U 14083A 18315.67491886 -.00000028 00000-0 00000-0 0 9993
L22 40348 0.0400 12.0699 0002563 217.5694 130.3438 5.00114318 71252

Live tracking and technical data element details for O3B FM10 (NORAD 40348). O3B FM10 can be tracked NOW for your location showing map with azimuth and elevation plus other details from your city location.

Track the satellite on the map from your city or location and see movement details for azimuth, elevation, latitude, longitude, range, height, and movement on the map or in text.







IsCatalogInMostPopularTable: catalog: 40348, numindb: 86
Update: records affected: 1



GetName: 40348 O3B FM10

Hit Count: updated at: Mon, 12 Nov 2018 21:42:49 GMT